Waarnemingen

Advertentie
Mijn weer
Sala, Zweden (2481): temperatuur & dauwpunt: 15.05.2019 01:00:00 - 21.05.2019 01:00:00 (CEST)Sala, Zweden (2481): windsnelheid & windstoten: 15.05.2019 01:00:00 - 21.05.2019 01:00:00 (CEST)Sala, Zweden (2481): windrichting: 15.05.2019 01:00:00 - 21.05.2019 01:00:00 (CEST)Sala, Zweden (2481): luchtdruk: 15.05.2019 01:00:00 - 21.05.2019 01:00:00 (CEST)Sala, Zweden (2481): zicht: 15.05.2019 01:00:00 - 21.05.2019 01:00:00 (CEST)Sala, Zweden (2481): neerslag: 15.05.2019 01:00:00 - 21.05.2019 01:00:00 (CEST)
Datum & Tijd tt [°C] td [°C] ff [km/u] ff [kn] fx [km/u] fx [kn] dd ppp [hPa] vv [km] rr [mm]
21.05.2019 01:00:00 11,9 9,5 6 4 13 7 NNO 1011,9 43 0,0
21.05.2019 00:00:00 13,2 10,4 6 3 12 6 NNO 1011,8 50 0,0
20.05.2019 23:00:00 14,6 10,6 9 5 13 7 NNO 1011,5 50 0,0
20.05.2019 22:00:00 15,5 11,5 6 3 13 7 N 1011,5 50 0,0
20.05.2019 21:00:00 17,8 12,5 9 5 16 9 ONO 1011,0 42 0,0
20.05.2019 20:00:00 19,2 13,4 9 5 17 9 ONO 1010,2 42 0,0
20.05.2019 19:00:00 19,8 13,0 12 7 23 13 ONO 1010,0 50 0,0
20.05.2019 18:00:00 22,2 13,5 12 6 21 11 ONO 1010,1 30 0,0
20.05.2019 17:00:00 23,6 13,2 3 2 10 5 ZZO 1010,1 46 0,0
20.05.2019 16:00:00 23,5 13,1 3 1 19 10 O 1010,4 33 0,0
20.05.2019 15:00:00 23,4 12,4 2 1 13 7 O 1010,6 37 0,0
20.05.2019 14:00:00 22,5 11,9 3 1 26 14 O 1010,9 22 0,0
20.05.2019 13:00:00 22,5 11,3 11 6 27 15 ONO 1010,9 26 0,0
20.05.2019 12:00:00 19,7 10,9 15 8 26 14 ONO 1011,5 38 0,0
20.05.2019 11:00:00 18,4 10,7 12 7 26 14 ONO 1011,5 33 0,0
20.05.2019 10:00:00 17,2 11,0 16 9 27 15 NO 1011,5 41 0,0
20.05.2019 09:00:00 16,2 10,7 21 11 28 15 NO 1011,8 24 0,0
20.05.2019 08:00:00 13,3 11,7 13 7 22 12 NNO 1012,2 11 0,0
20.05.2019 07:00:00 12,8 12,6 16 8 25 13 NNO 1012,0 13 0,0
20.05.2019 06:00:00 13,1 12,9 9 5 22 12 N 1012,7 8 0,0
20.05.2019 05:00:00 14,1 13,9 10 5 16 8 NNO 1012,5 4,2 0,0
20.05.2019 04:00:00 13,6 13,4 10 5 15 8 N 1012,5 - 0,0
20.05.2019 03:00:00 12,8 12,6 5 3 9 5 NO 1013,0 6 0,0
20.05.2019 02:00:00 12,7 12,5 3 2 8 4 N 1013,3 3,0 0,0
20.05.2019 01:00:00 13,5 13,3 2 1 3 2 NO 1013,7 8 0,0
20.05.2019 00:00:00 15,4 14,6 0 0 3 2 N 1013,8 31 0,0
19.05.2019 23:00:00 16,2 14,4 0 0 7 4 N 1013,8 34 0,0
19.05.2019 22:00:00 17,3 13,8 0 0 6 3 N 1013,5 47 0,0
19.05.2019 21:00:00 19,3 13,7 0 0 8 5 N 1013,2 49 0,0
19.05.2019 20:00:00 19,9 12,9 4 2 14 8 ZZW 1013,0 43 0,0
19.05.2019 19:00:00 21,2 12,3 5 3 18 10 ZZW 1012,8 49 0,0
19.05.2019 18:00:00 21,1 12,5 9 5 18 10 ZZW 1013,0 47 0,0
19.05.2019 17:00:00 21,4 12,8 9 5 24 13 ZZW 1013,2 23 0,0
19.05.2019 16:00:00 21,9 13,3 9 5 20 11 ZZW 1013,1 24 0,0
19.05.2019 15:00:00 21,9 13,5 8 4 21 11 Z 1013,2 27 0,0
19.05.2019 14:00:00 22,8 13,6 6 3 19 10 ZZW 1013,2 21 0,0
19.05.2019 13:00:00 20,3 13,5 3 1 10 5 OZO 1013,3 50 0,0
19.05.2019 12:00:00 18,9 13,1 2 1 10 5 ZO 1013,2 44 0,0
19.05.2019 11:00:00 18,2 13,3 3 1 14 8 WZW 1013,4 37 0,0
19.05.2019 10:00:00 17,8 13,1 3 2 9 5 OZO 1013,3 39 0,0
19.05.2019 09:00:00 14,7 9,3 5 3 10 6 ONO 1013,3 37 0,0
19.05.2019 08:00:00 13,5 7,7 0 0 6 4 N 1013,8 50 0,0
19.05.2019 07:00:00 12,1 6,8 5 3 8 4 NNO 1013,5 50 0,0
19.05.2019 06:00:00 11,6 7,1 5 3 7 4 N 1013,4 50 0,0
19.05.2019 05:00:00 11,1 5,6 0 0 9 5 N 1013,6 50 0,0
19.05.2019 04:00:00 11,6 5,7 8 5 14 8 ONO 1013,3 50 0,0
19.05.2019 03:00:00 11,5 6,2 9 5 17 9 ONO 1013,6 50 0,0
19.05.2019 02:00:00 11,0 6,7 11 6 23 12 ONO 1013,8 50 0,7
19.05.2019 01:00:00 13,2 5,1 14 8 20 11 ONO 1014,7 50 0,0
19.05.2019 00:00:00 12,5 7,4 3 1 19 10 ZZW 1015,7 50 0,0
18.05.2019 23:00:00 13,4 9,8 9 5 13 7 NO 1015,6 50 0,3
18.05.2019 22:00:00 13,5 10,1 6 3 18 10 NO 1015,8 30 0,0
18.05.2019 21:00:00 17,9 4,1 7 4 21 11 O 1015,5 50 0,0
18.05.2019 20:00:00 18,9 5,4 4 2 21 11 O 1015,8 36 0,0
18.05.2019 19:00:00 19,6 6,7 4 2 16 9 OZO 1015,7 48 0,0
18.05.2019 18:00:00 20,1 7,1 4 2 17 9 O 1015,9 50 0,0
18.05.2019 17:00:00 20,3 8,3 2 1 18 10 OZO 1016,4 50 0,0
18.05.2019 16:00:00 20,8 8,4 2 1 21 12 ZO 1016,8 42 0,0
18.05.2019 15:00:00 21,4 7,6 5 3 23 12 O 1017,0 41 0,0
18.05.2019 14:00:00 21,8 6,5 7 4 34 18 O 1017,2 43 0,0
18.05.2019 13:00:00 21,6 6,3 8 5 27 15 O 1017,4 36 0,0
18.05.2019 12:00:00 19,2 6,7 9 5 25 14 O 1018,4 36 0,0
18.05.2019 11:00:00 16,4 7,1 13 7 22 12 ONO 1018,8 47 0,0
18.05.2019 10:00:00 13,8 6,4 12 6 21 11 NO 1019,1 50 0,0
18.05.2019 09:00:00 12,8 5,9 14 7 21 12 NO 1018,9 50 0,0
18.05.2019 08:00:00 12,0 5,6 14 8 21 11 NO 1019,2 50 0,0
18.05.2019 07:00:00 10,6 5,1 14 8 22 12 NO 1019,6 50 0,0
18.05.2019 06:00:00 9,7 5,1 15 8 25 13 NO 1019,8 50 0,0
18.05.2019 05:00:00 9,6 4,8 17 9 25 13 NO 1020,3 50 0,0
18.05.2019 04:00:00 9,3 4,9 18 10 26 14 NO 1020,4 50 0,0
18.05.2019 03:00:00 8,7 4,5 17 9 26 14 NO 1020,9 50 0,0
18.05.2019 02:00:00 8,6 4,4 14 8 21 11 NO 1021,5 50 0,0
18.05.2019 01:00:00 8,4 3,6 14 8 22 12 NO 1021,8 50 0,0
18.05.2019 00:00:00 8,2 3,1 13 7 17 9 NO 1022,3 50 0,0
17.05.2019 23:00:00 10,2 2,5 7 4 19 11 ONO 1022,5 50 0,0
17.05.2019 22:00:00 12,2 2,4 13 7 21 12 ONO 1022,3 50 0,0
17.05.2019 21:00:00 14,6 2,5 13 7 24 13 ONO 1022,0 50 0,0
17.05.2019 20:00:00 16,6 0,7 8 4 35 19 O 1021,7 50 0,0
17.05.2019 19:00:00 18,3 1,3 21 11 34 19 ONO 1021,5 47 0,0
17.05.2019 18:00:00 19,7 2,1 18 10 34 19 ONO 1021,8 36 0,0
17.05.2019 17:00:00 20,1 2,0 19 11 33 18 ONO 1022,1 45 0,0
17.05.2019 16:00:00 20,9 2,2 11 6 26 14 O 1022,9 37 0,0
17.05.2019 15:00:00 20,0 0,4 17 9 38 20 ONO 1023,2 47 0,0
17.05.2019 14:00:00 20,0 1,4 14 7 35 19 ONO 1023,8 47 0,0
17.05.2019 13:00:00 19,5 2,4 16 9 32 17 ONO 1024,2 43 0,0
17.05.2019 12:00:00 18,4 2,7 17 9 32 17 ONO 1025,0 50 0,0
17.05.2019 11:00:00 17,2 3,5 11 6 31 17 O 1025,6 43 0,0
17.05.2019 10:00:00 15,3 3,7 13 7 24 13 NO 1026,2 44 0,0
17.05.2019 09:00:00 14,5 3,3 10 5 21 12 O 1026,6 40 0,0
17.05.2019 08:00:00 12,2 2,6 11 6 20 11 ONO 1027,2 48 0,0
17.05.2019 07:00:00 9,5 2,4 10 5 14 8 NO 1027,5 49 0,0
17.05.2019 06:00:00 5,4 1,9 4 2 6 3 N 1027,5 50 0,0
17.05.2019 05:00:00 3,3 1,3 5 3 10 5 N 1027,4 50 0,0
17.05.2019 04:00:00 1,5 -0,1 3 2 5 3 N 1027,4 50 0,0
17.05.2019 03:00:00 2,8 1,0 0 0 5 3 N 1027,5 50 0,0
17.05.2019 02:00:00 4,2 1,6 0 0 4 2 N 1027,9 50 0,0
17.05.2019 01:00:00 5,2 1,5 0 0 5 3 N 1027,7 50 0,0
17.05.2019 00:00:00 6,7 2,6 3 2 4 2 NNW 1027,7 50 0,0
16.05.2019 23:00:00 8,5 3,1 0 0 2 1 N 1027,7 50 0,0
16.05.2019 22:00:00 11,2 3,7 0 0 12 6 N 1027,7 50 0,0
16.05.2019 21:00:00 14,7 3,5 8 4 18 10 O 1027,4 50 0,0
16.05.2019 20:00:00 17,1 3,4 14 8 25 14 ONO 1026,9 50 0,0
16.05.2019 19:00:00 18,3 3,0 13 7 26 14 ONO 1026,9 44 0,0
16.05.2019 18:00:00 18,7 2,5 17 9 27 15 NO 1027,1 45 0,0
16.05.2019 17:00:00 19,5 1,9 19 10 27 14 NO 1027,4 40 0,0
16.05.2019 16:00:00 19,3 1,3 10 5 25 14 NNO 1027,8 40 0,0
16.05.2019 15:00:00 18,5 1,5 8 5 26 14 NO 1028,3 24 0,0
16.05.2019 14:00:00 18,1 2,0 10 5 30 16 ONO 1029,0 45 0,0
16.05.2019 13:00:00 17,8 2,5 16 9 35 19 NO 1029,4 32 0,0
16.05.2019 12:00:00 16,3 1,6 17 9 32 17 NO 1029,9 40 0,0
16.05.2019 11:00:00 16,8 2,4 7 4 25 14 O 1030,4 39 0,0
16.05.2019 10:00:00 15,5 2,0 7 4 19 10 O 1030,6 36 0,0
16.05.2019 09:00:00 14,0 2,6 6 4 16 9 NO 1030,8 50 0,0
16.05.2019 08:00:00 11,9 2,1 13 7 18 10 NO 1030,8 50 0,0
16.05.2019 07:00:00 8,6 3,4 4 2 6 4 N 1030,8 50 0,0
16.05.2019 06:00:00 4,0 1,7 5 3 6 4 N 1031,1 50 0,0
16.05.2019 05:00:00 0,7 -0,3 3 1 4 2 N 1031,0 50 0,0
16.05.2019 04:00:00 1,1 -0,4 2 1 3 2 N 1031,0 50 0,0
16.05.2019 03:00:00 1,9 -0,2 0 0 2 1 N 1031,1 50 0,0
16.05.2019 02:00:00 3,0 0,6 0 0 5 3 N 1031,2 50 0,0
16.05.2019 01:00:00 4,0 0,5 0 0 3 2 N 1031,3 50 0,0
16.05.2019 00:00:00 7,0 1,1 0 0 3 2 N 1031,2 50 0,0
15.05.2019 23:00:00 7,5 1,3 0 0 0 0 N 1030,8 50 0,0
15.05.2019 22:00:00 8,8 2,1 0 0 1 1 N 1030,4 50 0,0
15.05.2019 21:00:00 12,3 2,7 0 0 2 1 N 1029,7 50 0,0
15.05.2019 20:00:00 15,3 2,8 0 0 9 5 N 1029,2 50 0,0
15.05.2019 19:00:00 16,9 0,5 4 2 19 10 ONO 1029,1 50 0,0
15.05.2019 18:00:00 17,8 -1,0 2 1 15 8 N 1029,3 50 0,0
15.05.2019 17:00:00 16,9 -0,3 4 2 30 16 ONO 1029,6 49 0,0
15.05.2019 16:00:00 17,4 -1,3 8 5 23 13 ONO 1029,8 50 0,0
15.05.2019 15:00:00 17,5 -1,2 4 2 24 13 Z 1030,0 43 0,0
15.05.2019 14:00:00 16,5 -1,1 11 6 22 12 ONO 1030,2 50 0,0
15.05.2019 13:00:00 16,9 -0,3 14 7 22 12 ONO 1030,5 45 0,0
15.05.2019 12:00:00 16,1 -1,0 14 7 23 13 N 1030,9 48 0,0
15.05.2019 11:00:00 15,1 -1,1 9 5 22 12 NO 1031,2 50 0,0
15.05.2019 10:00:00 15,0 -0,3 11 6 20 11 NO 1031,4 44 0,0
15.05.2019 09:00:00 13,9 0,2 9 5 16 9 NO 1031,4 42 0,0
15.05.2019 08:00:00 9,7 3,9 6 3 11 6 N 1031,3 50 0,0
15.05.2019 07:00:00 6,3 2,9 6 3 10 5 N 1031,2 50 0,0
15.05.2019 06:00:00 3,1 1,5 3 2 6 3 N 1031,1 50 0,0
15.05.2019 05:00:00 0,6 -0,3 4 2 6 3 N 1031,0 50 0,0
15.05.2019 04:00:00 -0,1 -0,7 2 1 5 3 N 1031,1 50 0,0
15.05.2019 03:00:00 1,0 0,1 0 0 0 0 N 1031,0 50 0,0
15.05.2019 02:00:00 1,4 -0,2 0 0 1 1 N 1030,9 50 0,0
15.05.2019 01:00:00 3,1 0,5 0 0 1 1 N 1030,8 50 0,0

tt = temperatuur
td = dauwpunt
ff = windsnelheid
fx = windstoten
dd = windrichting
ppp = luchtdruk
vv = zicht
rr = neerslag

Weerstations in de omgeving